Tracking 21612 objects as of 20-Oct-2020
HD Live streaming from Space Station
objects crossing your sky now

COSMOS 568

Track COSMOS 568 now!
10-day predictions
COSMOS 568 is classified as:


NORAD ID: 6679
Int'l Code: 1973-037E
Perigee: 1,381.7 km
Apogee: 1,487.4 km
Inclination: 74.0 °
Period: 114.4 minutes
Semi major axis: 7805 km
RCS: 0.71 m2 (medium)
Launch date: June 8, 1973
Source: Commonwealth of Independent States (former USSR) (CIS)
Launch site: PLESETSK MISSILE AND SPACE COMPLEX (PKMTR)
aabbcc
Your satellite tracking list
Your tracking list is empty




NASA's NSSDC Master Catalog

Two Line Element Set (TLE):
1  6679U 73037E   20292.96754957 -.00000005 +00000-0 +66606-4 0  9999
2  6679 074.0176 158.2731 0067698 337.1414 125.1690 12.58909233176607
Source of the keplerian elements: AFSPC